Preview of NWS' New Version of Forecast
This preview is not operational and should not be used for support decisions.
Latest weather observations around

Dallas Love Field (KDAL)

Using English Units (Switch to International System of Units)
Date/ Time (CDT) Wind (mph) Vis. (mi) Weather Sky Cond. Temp (°F) Rel. Humidity Wind Chill (°F) Heat Index (°F) Pressure Precip. (in)
Air Dwpt 6 hour Altimeter (inHg) Sea level (inHg) 1 hr 3 hr 6 hr
Max Min
Jun 18 23:53 S 8 10 Mostly Cloudy FEW060 BKN250 BKN300 85 68     57%   88 29.86 29.84      
Jun 18 22:53 S 7 10 Cloudy FEW050 BKN250 OVC300 86 67     53%   89 29.83 29.8      
Jun 18 21:53 SSE 8 10 Mostly Cloudy SCT250 BKN300 87 66     50%   89 29.81 29.79      
Jun 18 20:53 S 8 10 Mostly Clear FEW250 88 66     48%   90 29.81 29.78      
Jun 18 19:53 S 6 10 Mostly Clear FEW250 91 65     42%   93 29.8 29.78      
Jun 18 18:53 SSW 8 10 Mostly Clear FEW060 FEW250 92 65     41%   94 29.81 29.79      
Jun 18 17:53 5 10 Mostly Clear FEW060 93 64     38%   95 29.83 29.8      
Jun 18 16:53 W 7 10 Mostly Clear FEW050 FEW250 92 62     37%   93 29.84 29.82      
Jun 18 15:53 SSW 9 10 Mostly Clear FEW050 FEW250 92 63     38%   93 29.87 29.85      
Jun 18 14:53 6 10 Mostly Clear FEW045 FEW250 91 64     41%   93 29.88 29.86      
Jun 18 13:53 SSE 7 10 Mostly Cloudy FEW043 FEW180 BKN250 89 66     47%   92 29.89 29.87      
Jun 18 12:53 Calm 10 Mostly Cloudy FEW038 FEW180 BKN250 88 66     48%   90 29.89 29.87      
Jun 18 11:53 SSE 9 10 Mostly Cloudy FEW010 FEW035 FEW140 FEW180 BKN250 85 68     57%   88 29.9 29.87      
Jun 18 10:53 SSE 8 10 Mostly Cloudy FEW030 FEW110 SCT180 BKN250 83 69     63%   87 29.9 29.88      
Jun 18 09:53 SSW 10 10 Mostly Cloudy FEW030 FEW180 BKN250 83 69     63%   87 29.92 29.89      
Jun 18 08:53 W 10 10 Mostly Cloudy FEW030 FEW180 BKN250 81 69     67%   84 29.95 29.92      
Jun 18 07:53 WSW 3 10 Mostly Cloudy FEW025 FEW065 BKN250 78 68     71%   79 29.95 29.93      
Jun 18 06:53 Calm 10 Mostly Cloudy FEW020 FEW065 BKN250 75 68     79%   76 29.94 29.92      
Jun 18 05:53 WSW 3 10 Mostly Clear FEW060 FEW300 74 68     82%   75 29.93 29.91      
Jun 18 04:53 Calm 10 Mostly Clear FEW300 75 68     79%   76 29.91 29.89      
Jun 18 03:53 SSE 3 10 Mostly Clear FEW300 76 67     74%   77 29.91 29.88      
Jun 18 02:53 S 3 10 Clear CLR 77 67     71%   78 29.91 29.89      
Jun 18 01:53 S 6 10 Partly Cloudy FEW050 FEW065 SCT300 77 67     71%   78 29.92 29.89      
Jun 18 00:53 Calm 10 Mostly Cloudy SCT050 BKN065 BKN250 BKN300 78 67     69%   79 29.93 29.91      
Jun 17 23:53 SSE 3 10 Mostly Cloudy SCT060 BKN250 BKN300 79 66     65%   80 29.93 29.91      
Jun 17 22:53 SSE 6 10 Mostly Cloudy FEW065 SCT250 BKN300 80 66     62%   82 29.91 29.89      
Jun 17 21:53 S 5 10 Mostly Cloudy FEW060 FEW250 BKN300 81 67     62%   83 29.88 29.86      
Jun 17 20:53 ESE 8 10 Partly Cloudy FEW060 FEW250 SCT300 83 67     59%   86 29.85 29.83      
Jun 17 19:53 E 3 10 Mostly Clear FEW060 FEW250 FEW300 86 63     46%   87 29.85 29.83      
Jun 17 18:53 Calm 10 Mostly Clear FEW050 FEW300 89 64     44%   90 29.85 29.83      
Jun 17 17:53 Calm 10 Mostly Clear FEW055 FEW300 87 64     46%   88 29.87 29.84      
Jun 17 16:53 NW 7 10 Mostly Cloudy FEW050 FEW250 BKN300 87 65     48%   89 29.88 29.86      
Jun 17 15:53 NNW 6 10 Mostly Cloudy FEW045 SCT250 BKN300 87 64     46%   88 29.91 29.88      
Jun 17 14:53 N 9 10 Mostly Cloudy SCT040 BKN250 84 65     53%   86 29.92 29.9      
Jun 17 13:53 3 10 Mostly Cloudy FEW035 BKN250 83 66     57%   85 29.93 29.91      
Jun 17 12:53 Calm 10 Mostly Cloudy SCT027 BKN250 80 66     62%   82 29.94 29.92      
Jun 17 12:47 Calm 10 Mostly Cloudy SCT027 BKN250 81 64     58%   82 29.94        
Jun 17 11:53 WNW 5 10 Mostly Cloudy BKN023 BKN030 BKN180 BKN250 79 66     65%   80 29.95 29.93      
Jun 17 10:53 Calm 10 Mostly Cloudy BKN020 BKN180 BKN250 76 65     69%   76 29.95 29.93      
Jun 17 09:53 ESE 8 10 Cloudy BKN016 OVC250 73 65     76%   74 29.95 29.93      
Jun 17 09:51 6 10 Cloudy BKN016 OVC250 73 64     73%   74 29.95        
Jun 17 08:53 ESE 5 10 Cloudy BKN012 OVC250 71 65     81%   72 29.93 29.91      
Jun 17 08:20 ESE 5 10 Mostly Cloudy BKN012 BKN250 71 65     81%   72 29.92        
Jun 17 07:53 E 3 10 Mostly Cloudy SCT011 BKN250 70 65     84%     29.91 29.9      
Jun 17 07:21 Calm 10 Mostly Cloudy SCT011 BKN250 69 64     84%     29.89        
Jun 17 06:53 Calm 10 Mostly Cloudy BKN012 BKN250 68 64     87%     29.88 29.86      
Jun 17 06:41 Calm 10 Mostly Cloudy BKN012 BKN250 67 64     90%     29.88        
Jun 17 05:53 Calm 10 Mostly Cloudy FEW010 BKN250 67 63     87%     29.87 29.85      
Jun 17 04:53 Calm 10 Cloudy OVC250 69 64     84%     29.86 29.85      
Jun 17 03:53 WSW 3 10 Cloudy FEW010 OVC250 69 64     84%     29.86 29.84      
Jun 17 02:53 W 3 10 Cloudy FEW010 OVC250 69 64     84%     29.88 29.86      
Jun 17 01:53 SW 5 10 Cloudy FEW010 FEW100 OVC250 69 64     84%     29.88 29.86      
Jun 17 00:53 S 6 10 Clear   69 65     87%     29.87 29.85      
Jun 16 23:53 S 6 10 Cloudy SCT010 BKN100 OVC250 69 65     87%     29.85 29.83      
Jun 16 22:53 SSE 13 10 Cloudy SCT009 BKN060 OVC085 70 65     84%     29.88 29.86      
Jun 16 21:53 SSE 8 10 Cloudy SCT009 BKN015 OVC060 69 65     87%     29.88 29.86      
Jun 16 21:47 SE 10 10 Cloudy SCT009 BKN015 OVC060 70 64     83%     29.88        
Jun 16 21:33 SE 11 10 Thunderstorms SCT009 BKN015 OVC060 69 65     87%     29.87        
Jun 16 21:04 SE 9 10 Thunderstorms BKN009 OVC015 69 65     87%     29.86        
Jun 16 20:56 SSE 6 10 Thunderstorms BKN010 OVC210 69 65     87%     29.86        
Jun 16 20:53 S 7 10 Cloudy BKN010 BKN110 OVC210 69 65     87%     29.86 29.84      
Jun 16 20:14 SSE 7 10 Cloudy BKN010 BKN060 BKN110 OVC210 70 65     84%     29.85        
Jun 16 19:53 SE 5 10 Cloudy FEW010 FEW055 SCT110 OVC210 70 65     84%     29.85 29.83      
Jun 16 18:53 SW 9 10 Mostly Cloudy FEW010 SCT110 BKN180 BKN250 69 65     87%     29.8 29.79 0   1
Jun 16 17:53 NE 14 10 Light Rain FEW015 SCT060 BKN110 OVC250 72 64     76%   72 29.73   0    
Jun 16 17:15 3 8 Light Rain FEW015 SCT030 BKN110 OVC250 70 65     84%     29.86   0    
Jun 16 16:53 NW 9 9 Thunderstorms and Rain FEW015 SCT037 BKN110 OVC200 70 64     81%     29.84 29.82 1    
Jun 16 16:31   4 Thunderstorms and Rain and Fog/Mist SCT015 BKN037 OVC110 69 65     87%     29.82   1    
Jun 16 16:24   3 Thunderstorms and Rain and Fog/Mist FEW006 BKN011 OVC022 68 64     87%     29.86   1    
Jun 16 16:18 WNW 17 1.75 Thunderstorms and Rain and Fog/Mist FEW006 BKN011 OVC022 67 64     90%     29.87   1    
Jun 16 16:08 W 13 1.5 Thunderstorms and Heavy Rain and Fog/Mist BKN013 OVC020 68 65     90%     29.88   1    
Jun 16 16:02 SSW 6 0.75 Thunderstorms and Heavy Rain and Fog/Mist SCT013 OVC020 67 64     90%     29.86   1    
Jun 16 15:56 SW 16 0.25 Thunderstorms and Heavy Rain and Fog SCT013 OVC020 68 64     87%     29.85   0    
Jun 16 15:53 WSW 18 0.5 Thunderstorms and Heavy Rain SCT008 OVC020 70 65     84%     29.88 29.86 0 0  
Jun 16 15:50   1 Thunderstorms and Heavy Rain SCT008 OVC020 75 66     74%   76 29.87   0    
Jun 16 15:48   2.5 Thunderstorms and Rain SCT008 OVC020 79 70     74%   80 29.88   0    
Jun 16 15:45 SSE 10 10 Thunderstorms FEW008 BKN020 OVC030 79 70     74%   82 29.89        
Jun 16 15:36 SE 17 10 Thunderstorms BKN022 OVC030 79 70     74%   82 29.81        
Jun 16 15:33 SE 17 10 Cloudy BKN022 OVC030 80 70     71%   83 29.8        
Jun 16 15:11 ESE 13 10 Cloudy FEW020 BKN030 OVC250 81 70     69%   84 29.81        
Jun 16 14:53 ESE 14 10 Cloudy SCT020 BKN028 OVC250 81 70     69%   84 29.8 29.78      
Jun 16 14:11 ESE 14 10 Cloudy BKN017 OVC026 78 69     74%   79 29.85        
Jun 16 13:53 SE 13 10 Cloudy BKN014 OVC022 77 69     77%   78 29.85 29.83      
Jun 16 12:53 SE 10 10 Cloudy BKN014 OVC022 77 69     77%   78 29.87 29.85     0
Jun 16 12:00 SE 11 10 Cloudy BKN014 BKN200 OVC250 77 69     77%   78 29.88        
Jun 16 11:53 SE 10 10 Mostly Cloudy SCT014 BKN200 BKN250 76 68     76%   77 29.88 29.86      
Jun 16 10:53 SE 10 10 Mostly Cloudy FEW006 FEW020 BKN200 BKN250 74 66     76%   75 29.89 29.87      
Jun 16 09:53 SE 10 10 Mostly Cloudy FEW006 SCT040 BKN180 BKN250 71 67     87%   72 29.91 29.88   0  
Jun 16 08:53 SE 9 10 Cloudy SCT006 BKN032 BKN060 OVC250 69 66     90%     29.92 29.89 0    
Jun 16 08:19 SE 11 10 Cloudy SCT006 BKN038 BKN050 OVC250 69 65     87%     29.89   0    
Jun 16 08:02 SE 13 10 Light Rain BKN006 OVC040 69 66     90%     29.91   0    
Jun 16 07:53 SE 10 10 Light Rain SCT006 BKN030 BKN050 OVC250 69 66     90%     29.9 29.88 0    
Jun 16 06:53 ESE 11 10 Light Rain SCT006 OVC030 68 65     90%     29.89 29.87 0   1
Jun 16 06:30 E 9 10 Cloudy FEW006 OVC032 68 65     90%     29.9        
Jun 16 05:53 3 10 Thunderstorms FEW006 OVC036 68 65     90%     29.89 29.87 0    
Jun 16 05:23 ESE 10 8 Thunderstorms and Rain FEW009 BKN050 OVC100 68 65     90%     29.89   0    
Jun 16 04:53 E 6 8 Thunderstorms and Rain FEW012 BKN055 OVC070 68 65     90%     29.89 29.86 0    
Jun 16 04:09 ENE 7 4 Thunderstorms and Rain and Fog/Mist FEW020 BKN042 OVC049 68 64     87%     29.9   0    
Jun 16 03:53 NNE 6 2 Thunderstorms and Rain and Fog/Mist BKN028 OVC040 68 65     90%     29.9 29.88 0 0  
Jun 16 03:50 NE 5 2 Thunderstorms and Rain and Fog/Mist BKN028 OVC040 68 64     88%     29.9   0    
Jun 16 03:25 N 11 1.75 Thunderstorms and Heavy Rain and Fog/Mist SCT024 OVC037 68 65     90%     29.9   0    
Jun 16 03:23 N 11 2 Thunderstorms and Rain and Fog/Mist BKN026 OVC039 68 64     87%     29.9   0    
Jun 16 03:05   10 Thunderstorms and Rain BKN026 BKN033 OVC180 73 63     71%   73 29.9   0    
Jun 16 02:53   10 Cloudy BKN027 OVC180 82 71     69%   86 29.9 29.87 0    
Jun 16 01:53 S 14 10 Cloudy FEW060 BKN180 OVC250 83 71     67%   88 29.85 29.82      
Jun 16 00:53 S 14 10 Mostly Cloudy BKN180 BKN250 84 70     63%   88 29.84 29.81      
May 14 14:53 SSW 11 10 Mostly Cloudy SCT047 BKN055 BKN200 BKN250 89 67     48%   92 29.92 29.9      
May 14 11:12 SSW 11 10 Mostly Cloudy SCT029 BKN085 BKN250 82 69     65%   85 29.98        
May 14 05:53 S 10 10 Mostly Cloudy BKN016 BKN250 75 70     84%   76 29.97 29.95      
May 13 15:53 SSE 17 10 Partly Cloudy FEW050 SCT070 88 66     48%   90 29.94 29.92      
May 13 04:53 S 11 10 Mostly Clear FEW020 FEW200 75 69     82%   76 29.96 29.94      
Notice The following observation data may not be complete
May 12 18:53   10 Mostly Clear FEW060          %              
May 12 07:53   10 Mostly Cloudy BKN020 75 68     79%   76 29.97 29.94      
May 12 03:53   10 Mostly Cloudy BKN021 74 67     79%   75 29.91 29.89      
Jun 12 06:53 S 8 10 Mostly Clear FEW012 76 72     88%   77 29.92 29.9      
Jun 12 05:53 S 10 10 Mostly Cloudy BKN015 76 72     88%   77 29.91 29.89      
Jun 11 14:53 SSE 17 10 Clear   88 65     47%   90 29.92 29.9      
Jun 11 13:53 S 20 10 Partly Cloudy and Windy SCT044 87 65     48%   89 29.93 29.91      
Jun 11 05:53 S 11 10 Partly Cloudy SCT016 74 69     85%   75 29.9 29.88      
Jun 11 02:53 SSE 15 10 Clear CLR 77 69     77%   78 29.89 29.87      
Jun 10 12:53 S 14 10 Partly Cloudy FEW030 FEW070 SCT250 85 66     53%   87 29.9 29.88      
Jun 09 12:29 SSE 8 10 Cloudy BKN014 BKN060 OVC140 71 65     81%   72 29.94        
Jun 09 07:25   4 Thunderstorms and Heavy Rain SCT029 OVC050 68 62     81%     29.98   0    
Jun 07 15:53 NNW 7 10 Mostly Cloudy FEW055 SCT070 BKN120 BKN250 90 64     42%   91 29.94 29.92      
Jun 06 06:53 N 3 10 Mostly Clear FEW250 71 68     90%   72 29.86 29.83      
Jun 05 20:53 NNE 5 10 Mostly Cloudy FEW040 FEW170 BKN250 77 70     79%   78 29.78 29.75      
Jun 05 16:53 E 6 10 Light Rain FEW025 SCT040 BKN080 BKN130 BKN250 74 71     91%   75 29.76 29.74 0